This demonstration page uses our WeatherBlox Daily Observations layout. Learn more.

Left ArrowRight Arrow

Hourly Observations for February 9, 2022

Temp ( °F °C ) Dew Point ( °F °C ) Humidity (%) Winds ( mph kmh ) Pressure ( in mb ) Visibility ( mi km ) Precip ( " mm )
12:56 am 00:56 Partly Cloudy 34 1.1 12 -11.1 40 40 WNW 9 15 30.02 1017 10 16 0.00 0.00
1:56 am 01:56 Mostly Clear 35 1.7 13 -10.6 40 40 WNW 9 15 30.02 1017 10 16 0.00 0.00
2:56 am 02:56 Mostly Clear 37 2.8 14 -10 39 39 WNW 9 15 30.02 1017 10 16 0.00 0.00
3:56 am 03:56 Partly Cloudy 35 1.7 14 -10 42 42 WNW 13 20 30.02 1017 10 16 0.00 0.00
4:56 am 04:56 Partly Cloudy 40 4.4 15 -9.4 36 36 W 12 19 30.01 1016 10 16 0.00 0.00
5:56 am 05:56 Clear 33 0.6 15 -9.4 47 47 WNW 10 17 30.03 1017 10 16 0.00 0.00
6:56 am 06:56 Clear 33 0.6 15 -9.4 47 47 WNW 10 17 30.05 1018 10 16 0.00 0.00
7:56 am 07:56 Sunny 32 0 15 -9.4 50 50 WNW 12 19 30.06 1018 10 16 0.00 0.00
8:56 am 08:56 Sunny 35 1.7 16 -8.9 46 46 WNW 10 17 30.08 1019 10 16 0.00 0.00
9:56 am 09:56 Sunny 43 6.1 19 -7.2 38 38 NNW 16 26 30.07 1018 10 16 0.00 0.00
10:56 am 10:56 Sunny 47 8.3 20 -6.7 34 34 NNW 16 26 30.06 1018 10 16 0.00 0.00
11:56 am 11:56 Sunny 49 9.4 19 -7.2 31 31 NW 17 28 30.05 1018 10 16 0.00 0.00
12:56 pm 12:56 Sunny 52 11.1 19 -7.2 27 27 NW 16 26 30.02 1017 10 16 0.00 0.00
1:56 pm 13:56 Sunny 53 11.7 18 -7.8 25 25 NW 23 37 30.00 1016 10 16 0.00 0.00
2:56 pm 14:56 Sunny 54 12.2 19 -7.2 25 25 NNW 17 28 29.98 1015 10 16 0.00 0.00
3:56 pm 15:56 Mostly Sunny 53 11.7 19 -7.2 26 26 NNW 24 39 29.98 1015 10 16 0.00 0.00
4:56 pm 16:56 Sunny 52 11.1 19 -7.2 27 27 N 15 24 29.99 1016 10 16 0.00 0.00
5:56 pm 17:56 Sunny 47 8.3 18 -7.8 31 31 N 9 15 30.00 1016 10 16 0.00 0.00
6:56 pm 18:56 Cloudy 44 6.7 17 -8.3 34 34 NNW 7 11 30.05 1018 10 16 0.00 0.00
7:56 pm 19:56 Cloudy 44 6.7 18 -7.8 35 35 NNW 5 7 30.08 1019 10 16 0.00 0.00
8:56 pm 20:56 Cloudy 42 5.6 20 -6.7 41 41 N 8 13 30.11 1020 10 16 0.00 0.00
9:56 pm 21:56 Cloudy 42 5.6 27 -2.8 55 55 NNW 9 15 30.11 1020 10 16 0.00 0.00
10:56 pm 22:56 Cloudy 40 4.4 28 -2.2 63 63 NNW 13 20 30.12 1020 10 16 0.00 0.00
11:56 pm 23:56 Mostly Cloudy 35 1.7 27 -2.8 72 72 NNW 7 11 30.13 1020 10 16 0.00 0.00

Powered by AerisWeather